User: anonymous   Login
Location: Unspecified
(0.0000°N, 0.0000°E)
Time: 07:50:25
(UTC+00:00)
Language:

SN 39 - Orbit

View from above orbital plane
View from above orbital plane
View from above satellite
View from above satellite

Ground track
Ground track

The orbit data is extracted from the following two-line orbital elements,

1 00671U 63038C   18112.67507576  .00000029  00000-0  34755-4 0  9999
2 00671  90.0663 327.2766 0038640 237.7612 190.7592 13.44802520675406
Epoch (UTC): 22 April 2018 16:12:06
Eccentricity: 0.0038640
inclination: 90.0663°
perigee height: 1062 km
apogee height: 1120 km
right ascension of ascending node: 327.2766°
argument of perigee: 237.7612°
revolutions per day: 13.44802520
mean anomaly at epoch: 190.7592°
orbit number at epoch: 67540

The dashed part of the orbit path shows where the satellite is in the earth's shadow,  

DLR